Location: Moscow
(55.7500°N, 37.5830°E)
Time: 14:01:46
(UTC+03:00)

S-56A Canister/Altair - Pass Details

Date: 09 December 2021
Orbit: 633 x 2499 km, 38.9° (Epoch: 17 January)

Event Time Altitude Azimuth Distance (km) Brightness Sun altitude
Rises 03:40:23 0° 260° (W) 4,441 - -41.0°
Reaches altitude 10° 03:46:39 10° 227° (SW) 2,924 - -40.2°
Maximum altitude 03:48:05 11° 215° (SW) 2,754 - -40.0°
Drops below altitude 10° 03:49:26 10° 203° (SSW) 2,694 - -39.9°
Sets 03:54:09 0° 165° (SSE) 3,277 - -39.2°
